This is the latest recevied weather packets stored in our database for station/object KE0LFX. If no packets are shown the sender has not sent any weather packets the latest 10 day(s).
| Time | Temp. | Humidity | Pressure | Rain* | Wind** | Luminosity | Snow |
|---|---|---|---|---|---|---|---|
| 1778078754 | 7.78° C | 51% | 1021.2 hPa | 0 mm | - | 48 W/m² | - |
| 1778078451 | 7.78° C | 52% | 1021 hPa | 0 mm | - | 49 W/m² | - |
| 1778078149 | 7.78° C | 53% | 1021 hPa | 0 mm | - | 130 W/m² | - |
| 1778077847 | 7.78° C | 53% | 1020.9 hPa | 0 mm | - | 81 W/m² | - |
| 1778077545 | 7.22° C | 52% | 1021.1 hPa | 0 mm | - | 86 W/m² | - |
| 1778077243 | 7.78° C | 53% | 1021.1 hPa | 0 mm | - | 113 W/m² | - |
| 1778076940 | 7.22° C | 54% | 1020.8 hPa | 0 mm | - | 73 W/m² | - |
| 1778076638 | 7.22° C | 53% | 1021 hPa | 0 mm | - | 73 W/m² | - |
| 1778076335 | 7.22° C | 55% | 1021.2 hPa | 0 mm | - | 67 W/m² | - |
| 1778076033 | 6.67° C | 56% | 1021 hPa | 0 mm | - | 55 W/m² | - |
| 1778075729 | 6.67° C | 56% | 1021 hPa | 0 mm | - | 86 W/m² | - |
| 1778075425 | 6.67° C | 56% | 1020.8 hPa | 0 mm | - | 56 W/m² | - |
| 1778075122 | 6.67° C | 55% | 1021 hPa | 0 mm | - | 72 W/m² | - |
| 1778074818 | 6.67° C | 56% | 1020.9 hPa | 0 mm | - | 97 W/m² | - |
| 1778074516 | 6.67° C | 56% | 1020.9 hPa | 0 mm | - | 87 W/m² | - |
| 1778074212 | 6.67° C | 56% | 1020.9 hPa | 0 mm | - | 97 W/m² | - |
| 1778073909 | 6.67° C | 56% | 1020.9 hPa | 0 mm | - | 93 W/m² | - |
| 1778073607 | 6.11° C | 56% | 1020.9 hPa | 0 mm | - | 89 W/m² | - |
| 1778073304 | 6.11° C | 57% | 1020.7 hPa | 0 mm | - | 79 W/m² | - |
| 1778073000 | 6.11° C | 56% | 1020.5 hPa | 0 mm | - | 78 W/m² | - |
| 1778072697 | 6.11° C | 57% | 1020.5 hPa | 0 mm | - | 85 W/m² | - |
| 1778072394 | 6.11° C | 58% | 1020.3 hPa | 0 mm | - | 77 W/m² | - |
| 1778072093 | 6.11° C | 58% | 1020.3 hPa | 0 mm | - | 77 W/m² | - |
| 1778071790 | 5.56° C | 59% | 1020.4 hPa | 0 mm | - | 75 W/m² | - |
| 1778071488 | 5.56° C | 61% | 1020.5 hPa | 0 mm | - | 74 W/m² | - |
* Rain latest hour (hover to see other rain measurements)
** Current wind speed in m/s (hover to see current wind gust speed)